CW1509 Weather Reports


Display with metric or nautical units.
time (UTC)temp
F
wind
direction
speed
MPH
gust
MPH
rain 1hr
in
rain 24hr
in
rain mn
in
humidity
%
barometer
mb
20260506134932 49 360 0.0 4.0 0.00 0.03 0.00 48 1013.2
20260506134433 49 360 1.0 4.0 0.00 0.03 0.00 47 1013.2
20260506133934 49 360 1.0 4.0 0.00 0.03 0.00 49 1013.0
20260506133454 49 360 1.0 4.0 0.00 0.03 0.00 50 1012.8
20260506132933 49 360 1.0 3.0 0.00 0.03 0.00 52 1012.7
20260506132453 49 360 0.0 3.0 0.00 0.03 0.00 53 1012.6
20260506131933 49 360 1.0 3.0 0.00 0.03 0.00 53 1012.7
20260506131432 49 360 0.0 3.0 0.00 0.03 0.00 55 1012.7
20260506130933 48 360 0.0 3.0 0.00 0.03 0.00 56 1012.6
20260506130432 48 360 1.0 3.0 0.00 0.03 0.00 57 1012.4
20260506125932 47 360 1.0 3.0 0.00 0.03 0.00 59 1012.4
20260506125431 46 360 2.0 3.0 0.00 0.03 0.00 61 1012.5
20260506124930 46 360 1.0 3.0 0.00 0.03 0.00 63 1012.5
20260506124431 45 360 1.0 3.0 0.00 0.03 0.00 65 1012.4
20260506123933 45 360 0.0 4.0 0.00 0.03 0.00 64 1012.4
20260506123432 45 360 1.0 4.0 0.00 0.03 0.00 65 1012.6
20260506122932 44 360 2.0 4.0 0.00 0.03 0.00 66 1012.5
20260506122432 44 360 1.0 4.0 0.00 0.03 0.00 69 1012.5
20260506121933 43 360 1.0 3.0 0.00 0.03 0.00 71 1012.5
20260506121414 42 360 0.0 3.0 0.00 0.03 0.00 74 1012.5
20260506120934 42 360 1.0 3.0 0.00 0.03 0.00 76 1012.4
20260506120415 41 360 1.0 3.0 0.00 0.03 0.00 78 1012.4
20260506115915 41 360 0.0 0.0 0.00 0.03 0.00 79 1012.3
20260506115416 40 360 0.0 0.0 0.00 0.03 0.00 80 1012.3
20260506114916 40 360 0.0 0.0 0.00 0.03 0.00 81 1012.2
20260506114417 39 360 0.0 0.0 0.00 0.03 0.00 81 1012.0
20260506113917 39 360 0.0 0.0 0.00 0.03 0.00 81 1011.9
20260506113416 39 360 0.0 0.0 0.00 0.03 0.00 81 1012.1
20260506112916 38 360 0.0 0.0 0.00 0.03 0.00 79 1011.9
20260506112436 39 360 0.0 0.0 0.00 0.03 0.00 78 1011.8
20260506111934 39 360 0.0 0.0 0.00 0.03 0.00 79 1011.7
20260506111434 39 360 0.0 0.0 0.00 0.03 0.00 78 1011.6
20260506110915 39 360 0.0 0.0 0.00 0.03 0.00 79 1011.3
20260506110414 39 360 0.0 0.0 0.00 0.03 0.00 78 1011.2
20260506105915 39 360 0.0 0.0 0.00 0.03 0.00 78 1011.1
20260506105436 39 360 0.0 0.0 0.00 0.03 0.00 77 1011.0
20260506104956 40 360 0.0 0.0 0.00 0.03 0.00 78 1011.1
20260506104456 40 360 0.0 0.0 0.00 0.03 0.00 77 1010.9
20260506103934 40 360 0.0 0.0 0.00 0.03 0.00 77 1011.0
20260506103432 40 360 0.0 0.0 0.00 0.03 0.00 76 1011.0
20260506102933 41 360 0.0 0.0 0.00 0.03 0.00 75 1011.1
20260506102433 41 360 0.0 0.0 0.00 0.03 0.00 74 1011.2
20260506101914 41 360 0.0 0.0 0.00 0.03 0.00 74 1011.1
20260506101415 41 360 0.0 0.0 0.00 0.03 0.00 74 1010.9
20260506100917 41 360 0.0 0.0 0.00 0.03 0.00 73 1010.9
20260506100418 41 360 0.0 0.0 0.00 0.03 0.00 73 1010.9
20260506095920 42 360 0.0 0.0 0.00 0.03 0.00 72 1010.8
20260506095423 42 360 0.0 0.0 0.00 0.03 0.00 72 1010.9
20260506094923 42 360 0.0 0.0 0.00 0.03 0.00 72 1011.0
20260506094424 42 360 0.0 0.0 0.00 0.03 0.00 72 1010.8
20260506093922 42 360 0.0 0.0 0.00 0.03 0.00 71 1010.7
20260506093423 42 360 0.0 0.0 0.00 0.03 0.00 70 1010.6
20260506092925 42 360 0.0 0.0 0.00 0.03 0.00 70 1010.8
20260506092426 43 360 0.0 0.0 0.00 0.03 0.00 70 1010.8
20260506091924 43 360 0.0 0.0 0.00 0.03 0.00 69 1010.8
20260506091426 43 360 0.0 0.0 0.00 0.03 0.00 69 1010.9
20260506090928 43 360 0.0 0.0 0.00 0.03 0.00 68 1010.9
20260506090430 43 360 0.0 0.0 0.00 0.03 0.00 68 1010.6
20260506085952 44 360 0.0 0.0 0.00 0.03 0.00 67 1010.6
20260506085434 44 360 0.0 0.0 0.00 0.03 0.00 67 1010.8
20260506084916 44 360 0.0 0.0 0.00 0.03 0.00 67 1010.8
20260506084436 44 360 0.0 0.0 0.00 0.03 0.00 67 1010.8
20260506083951 44 360 0.0 0.0 0.00 0.03 0.00 67 1010.6
20260506083431 44 360 0.0 0.0 0.00 0.03 0.00 66 1010.6
20260506082931 45 360 0.0 0.0 0.00 0.03 0.00 66 1010.4
20260506082431 45 360 0.0 0.0 0.00 0.03 0.00 65 1010.4
20260506081950 45 360 0.0 0.0 0.00 0.03 0.00 65 1010.1
20260506081428 45 360 0.0 0.0 0.00 0.03 0.00 65 1010.1
20260506080927 45 360 0.0 0.0 0.00 0.03 0.00 65 1009.9
20260506080426 45 360 0.0 0.0 0.00 0.03 0.00 65 1009.9
20260506073425 46 360 0.0 3.0 0.00 0.03 0.00 65 1009.7
20260506072924 46 360 1.0 3.0 0.00 0.03 0.00 65 1009.9
20260506072424 47 360 1.0 4.0 0.00 0.03 0.00 65 1009.9
20260506071918 47 360 1.0 4.0 0.00 0.03 0.00 66 1009.9
20260506071418 47 360 1.0 4.0 0.00 0.03 0.00 66 1009.9
20260506070920 47 360 1.0 3.0 0.00 0.03 0.00 69 1009.8
20260506070420 47 360 1.0 2.0 0.00 0.03 0.00 70 1009.8
20260506062419 47 360 0.0 0.0 0.00 0.03 0.00 76 1010.1
20260506061941 47 360 0.0 0.0 0.00 0.03 0.00 76 1010.2
20260506061420 47 360 0.0 0.0 0.00 0.03 0.00 76 1010.2
20260506060920 47 360 0.0 0.0 0.00 0.03 0.00 76 1010.0
20260506060421 48 360 0.0 0.0 0.00 0.03 0.00 76 1009.9
20260506050921 48 360 0.0 0.0 0.00 0.03 0.00 76 1010.3
20260506050421 48 360 0.0 0.0 0.00 0.03 0.00 77 1010.4
20260506044944 48 360 0.0 0.0 0.00 0.03 0.00 76 1010.3
20260506044443 48 360 0.0 0.0 0.00 0.03 0.00 76 1010.1
20260506043923 48 360 0.0 0.0 0.00 0.03 0.00 75 1010.2
20260506043423 48 360 0.0 0.0 0.00 0.03 0.00 74 1010.2
20260506042943 48 360 0.0 0.0 0.00 0.03 0.00 74 1010.1
20260506042441 48 360 0.0 0.0 0.00 0.03 0.00 73 1009.9
20260506041942 48 360 0.0 0.0 0.00 0.03 0.00 73 1009.9
20260506041421 48 360 0.0 0.0 0.00 0.03 0.00 73 1009.7
20260506040921 48 360 0.0 0.0 0.00 0.03 0.00 73 1009.8
20260506040442 48 360 0.0 0.0 0.00 0.07 0.03 73 1009.7
20260506035913 48 360 0.0 0.0 0.00 0.07 0.03 73 1009.6
20260506035414 48 360 0.0 0.0 0.00 0.07 0.03 73 1009.6
20260506034913 49 360 0.0 0.0 0.00 0.07 0.03 73 1009.5
20260506034412 49 360 0.0 0.0 0.00 0.07 0.03 72 1009.5
20260506033934 49 360 0.0 0.0 0.00 0.07 0.03 72 1009.7
20260506033415 49 360 0.0 0.0 0.00 0.07 0.03 71 1009.7
20260506032915 49 360 0.0 0.0 0.00 0.07 0.03 71 1009.9
20260506032416 49 360 0.0 0.0 0.00 0.07 0.03 70 1009.7
20260506031936 49 360 0.0 0.0 0.00 0.07 0.03 70 1009.8
20260506031420 49 360 0.0 0.0 0.00 0.07 0.03 69 1009.9
20260506030941 49 360 0.0 0.0 0.00 0.07 0.03 68 1009.9
20260506030437 49 360 0.0 0.0 0.00 0.12 0.03 68 1009.7
20260506025918 49 360 0.0 0.0 0.00 0.12 0.03 68 1009.7
20260506025420 49 360 0.0 0.0 0.00 0.12 0.03 68 1009.7
20260506024923 49 360 0.0 0.0 0.00 0.12 0.03 68 1009.8
20260506024423 50 360 0.0 0.0 0.00 0.12 0.03 68 1009.7
20260506023944 50 360 0.0 0.0 0.00 0.12 0.03 68 1009.7
20260506023424 50 360 0.0 0.0 0.00 0.12 0.03 68 1009.6
20260506022925 50 360 0.0 0.0 0.00 0.12 0.03 67 1009.5
20260506022447 50 360 0.0 0.0 0.00 0.12 0.03 68 1009.5
20260506021929 50 360 0.0 0.0 0.00 0.12 0.03 66 1009.5
20260506021411 50 360 0.0 0.0 0.00 0.12 0.03 66 1009.4
20260506020912 50 360 0.0 0.0 0.00 0.12 0.03 65 1009.4
20260506020413 50 360 0.0 0.0 0.00 0.21 0.03 62 1009.4
20260506015913 50 360 0.0 0.0 0.00 0.21 0.03 61 1009.4
20260506015415 50 360 0.0 0.0 0.00 0.21 0.03 61 1009.2
20260506014914 50 360 0.0 0.0 0.00 0.21 0.03 60 1009.4
20260506014415 50 360 0.0 0.0 0.00 0.21 0.03 59 1009.1
20260506013916 51 360 0.0 0.0 0.00 0.21 0.03 59 1009.0
20260506013421 51 360 0.0 0.0 0.00 0.21 0.03 59 1008.9
20260506012945 51 360 0.0 0.0 0.00 0.21 0.03 59 1009.1
20260506012426 51 360 0.0 0.0 0.00 0.21 0.03 59 1009.0
20260506011926 51 360 0.0 0.0 0.00 0.21 0.03 58 1008.8
20260506011424 51 360 0.0 0.0 0.00 0.21 0.03 55 1008.7
20260506010925 51 360 0.0 0.0 0.00 0.21 0.03 54 1008.8
20260506010425 51 360 0.0 0.0 0.00 0.27 0.03 53 1008.7
20260506005925 51 360 0.0 0.0 0.00 0.27 0.03 53 1008.6
20260506005425 51 360 0.0 0.0 0.00 0.27 0.03 53 1008.6
20260506004926 51 360 0.0 0.0 0.00 0.27 0.03 55 1008.6
20260506004426 51 360 0.0 0.0 0.00 0.27 0.03 54 1008.6
20260506003928 52 360 0.0 0.0 0.00 0.27 0.03 53 1008.6
20260506003428 52 360 0.0 0.0 0.00 0.27 0.03 51 1008.6
20260506002929 52 360 0.0 0.0 0.00 0.27 0.03 52 1008.4
20260506002428 52 360 0.0 0.0 0.00 0.27 0.03 52 1008.5
20260506001927 52 360 0.0 0.0 0.00 0.27 0.03 51 1008.6
20260506001427 52 360 0.0 0.0 0.00 0.27 0.03 50 1008.3
20260506000928 52 360 0.0 0.0 0.00 0.27 0.03 48 1008.2
20260506000449 52 360 0.0 0.0 0.00 0.27 0.03 49 1008.3
20260505235927 52 360 0.0 0.0 0.00 0.27 0.03 49 1008.3
20260505235448 52 360 0.0 0.0 0.00 0.27 0.03 49 1008.3
20260505234927 52 360 0.0 0.0 0.00 0.27 0.03 47 1008.4
20260505234429 52 360 0.0 0.0 0.00 0.27 0.03 48 1008.4
20260505233929 52 360 0.0 0.0 0.00 0.27 0.03 46 1008.6
20260505233430 52 360 0.0 0.0 0.00 0.27 0.03 47 1008.5
20260505232930 52 360 0.0 0.0 0.00 0.27 0.03 48 1008.6
20260505232432 52 360 0.0 0.0 0.00 0.27 0.03 48 1008.6
20260505231952 52 360 0.0 0.0 0.00 0.27 0.03 48 1008.7
20260505231432 52 360 0.0 0.0 0.00 0.27 0.03 48 1008.7
20260505230913 52 360 0.0 0.0 0.00 0.27 0.03 47 1008.7
20260505230413 52 360 0.0 0.0 0.00 0.27 0.03 46 1008.7
20260505225913 52 360 0.0 0.0 0.00 0.27 0.03 47 1008.7
20260505225413 52 360 0.0 0.0 0.00 0.27 0.03 49 1008.7
20260505224912 52 360 0.0 0.0 0.00 0.27 0.03 49 1008.8
20260505224412 52 360 0.0 0.0 0.00 0.27 0.03 49 1008.9
20260505223913 52 360 0.0 2.0 0.00 0.27 0.03 48 1008.9
20260505223413 52 360 0.0 3.0 0.00 0.27 0.03 47 1008.8
20260505222913 52 360 1.0 3.0 0.00 0.27 0.03 48 1008.8
20260505222413 52 360 0.0 2.0 0.00 0.27 0.03 48 1008.9
20260505221912 52 360 0.0 0.0 0.00 0.27 0.03 47 1008.9
20260505221414 52 360 0.0 0.0 0.00 0.27 0.03 48 1008.9
20260505220913 52 360 0.0 0.0 0.00 0.27 0.03 48 1008.9
20260505220412 53 360 0.0 0.0 0.00 0.34 0.03 49 1008.9
20260505215934 53 360 0.0 0.0 0.00 0.34 0.03 50 1008.9
20260505215433 53 360 0.0 2.0 0.00 0.34 0.03 48 1008.9
20260505214915 53 360 0.0 3.0 0.00 0.34 0.03 49 1008.9
20260505214415 53 360 0.0 3.0 0.00 0.34 0.03 47 1008.9
20260505213915 53 360 0.0 2.0 0.00 0.34 0.03 47 1008.9
20260505213437 53 360 0.0 2.0 0.00 0.34 0.03 47 1009.0
20260505212915 53 360 0.0 3.0 0.00 0.34 0.03 48 1008.9
20260505212416 53 360 1.0 3.0 0.00 0.34 0.03 47 1008.9
20260505211913 53 360 0.0 3.0 0.00 0.34 0.03 48 1009.0
20260505211415 53 360 1.0 3.0 0.00 0.34 0.03 47 1009.1
20260505210916 53 360 1.0 3.0 0.00 0.34 0.03 47 1009.1
20260505210415 53 360 0.0 4.0 0.00 0.34 0.03 47 1009.2
20260505205936 53 360 1.0 4.0 0.00 0.34 0.03 46 1009.2
20260505205415 53 360 1.0 4.0 0.00 0.34 0.03 46 1009.2
20260505204916 53 360 2.0 4.0 0.00 0.34 0.03 46 1009.1
20260505204416 53 360 0.0 4.0 0.00 0.34 0.03 46 1009.0
20260505203917 53 360 1.0 4.0 0.00 0.34 0.03 44 1009.0
20260505203418 53 360 1.0 3.0 0.00 0.34 0.03 45 1009.0
20260505202918 54 360 1.0 3.0 0.00 0.34 0.03 44 1009.0
20260505202420 54 360 0.0 2.0 0.00 0.34 0.03 46 1009.0
20260505201919 54 360 0.0 1.0 0.00 0.34 0.03 44 1009.2
20260505201420 54 360 0.0 5.0 0.00 0.34 0.03 46 1009.2
20260505200920 54 360 2.0 5.0 0.00 0.34 0.03 44 1009.1
20260505200421 54 360 1.0 4.0 0.00 0.34 0.03 42 1009.1
20260505195920 54 360 0.0 3.0 0.00 0.34 0.03 45 1009.1
20260505195420 54 360 0.0 3.0 0.00 0.34 0.03 45 1009.3
20260505194920 54 360 1.0 3.0 0.00 0.34 0.03 44 1009.4
20260505194421 54 360 0.0 3.0 0.00 0.34 0.03 45 1009.4
20260505193940 54 360 1.0 3.0 0.00 0.34 0.03 45 1009.3
20260505193418 54 360 1.0 3.0 0.00 0.34 0.03 45 1009.5
20260505192919 54 360 1.0 3.0 0.00 0.34 0.03 44 1009.5
20260505192435 55 360 1.0 5.0 0.00 0.34 0.03 46 1009.5
20260505191916 55 360 2.0 5.0 0.00 0.34 0.03 44 1009.4
20260505191416 55 360 2.0 4.0 0.00 0.34 0.03 45 1009.5
20260505190915 55 360 1.0 4.0 0.00 0.34 0.03 44 1009.5
20260505190417 55 360 0.0 5.0 0.00 0.34 0.03 46 1009.4
20260505185918 55 360 2.0 6.0 0.00 0.34 0.03 44 1009.4
20260505185419 55 360 2.0 6.0 0.00 0.34 0.03 45 1009.4
20260505184918 55 360 2.0 3.0 0.00 0.34 0.03 48 1009.4
20260505184418 55 360 1.0 3.0 0.00 0.34 0.03 48 1009.4
20260505183918 55 360 1.0 3.0 0.00 0.34 0.03 49 1009.3
20260505183439 55 360 0.0 6.0 0.00 0.34 0.03 49 1009.2
20260505182919 55 360 3.0 6.0 0.00 0.34 0.03 47 1009.1
20260505182419 55 360 1.0 6.0 0.00 0.34 0.03 48 1009.2
20260505181921 55 360 1.0 5.0 0.00 0.34 0.03 50 1009.3
20260505181428 55 360 3.0 5.0 0.00 0.34 0.03 51 1009.1
20260505180929 55 360 1.0 6.0 0.00 0.34 0.03 52 1009.2
20260505180430 55 360 2.0 8.0 0.00 0.34 0.03 52 1009.2
20260505175930 55 360 1.0 3.0 0.00 0.34 0.03 54 1009.0
20260505175431 55 360 0.0 6.0 0.00 0.34 0.03 53 1009.1
20260505174912 55 360 1.0 5.0 0.00 0.34 0.03 53 1009.0
20260505174413 55 360 2.0 4.0 0.00 0.34 0.03 53 1008.9
20260505173915 55 360 1.0 6.0 0.00 0.34 0.03 54 1008.9
20260505173413 55 290 2.0 6.0 0.00 0.34 0.03 57 1009.0
20260505172935 54 360 1.0 6.0 0.00 0.34 0.03 60 1009.0
20260505172434 54 360 3.0 6.0 0.00 0.34 0.03 59 1009.0
20260505171913 54 360 0.0 6.0 0.00 0.34 0.03 56 1008.9
20260505171413 54 360 3.0 6.0 0.00 0.34 0.03 58 1008.7
20260505170912 54 360 2.0 4.0 0.00 0.34 0.03 59 1008.7
20260505170412 54 360 1.0 4.0 0.00 0.34 0.03 56 1008.8
20260505165932 54 333 0.0 5.0 0.00 0.34 0.03 60 1008.7
20260505165453 54 360 1.0 5.0 0.00 0.34 0.03 63 1008.9
20260505164917 53 360 1.0 3.0 0.00 0.34 0.03 63 1008.8
20260505164417 53 360 1.0 5.0 0.00 0.34 0.03 59 1008.9
20260505163917 52 360 2.0 6.0 0.00 0.34 0.03 63 1008.8
20260505163418 52 360 1.0 4.0 0.00 0.34 0.03 65 1008.8
20260505162918 52 360 2.0 5.0 0.00 0.34 0.03 64 1008.8
20260505162419 52 360 1.0 5.0 0.00 0.34 0.03 69 1008.7
20260505161918 52 292 1.0 4.0 0.00 0.34 0.03 65 1008.6
20260505161418 51 360 2.0 4.0 0.00 0.34 0.03 73 1008.6
20260505160939 50 360 0.0 5.0 0.00 0.34 0.03 73 1008.3
20260505160418 50 360 0.0 5.0 0.00 0.34 0.03 76 1008.5
20260505152920 45 360 0.0 4.0 0.00 0.34 0.03 83 1008.7
20260505152442 45 360 1.0 5.0 0.00 0.34 0.03 84 1008.8
20260505151918 45 360 2.0 5.0 0.01 0.34 0.03 85 1008.7
20260505151418 45 360 0.0 3.0 0.01 0.34 0.03 85 1008.5
20260505150918 44 360 1.0 3.0 0.01 0.34 0.03 85 1008.7
20260505150419 44 360 1.0 2.0 0.02 0.34 0.03 85 1008.9
20260505140419 46 360 0.0 2.0 0.01 0.32 0.01 79 1009.3